TimeICT,TemperatureF,Dew PointF,Humidity,Sea Level PressureIn,VisibilityMPH,Wind Direction,Wind SpeedMPH,Gust SpeedMPH,PrecipitationIn,Events,Conditions,WindDirDegrees,DateUTC
12:00 AM,80.6,69.8,70,29.92,6.2,East,11.5,-,N/A,,Mostly Cloudy,80,2013-01-19 17:00:00
12:30 AM,80.6,69.8,70,29.92,6.2,East,13.8,-,N/A,,Mostly Cloudy,80,2013-01-19 17:30:00
1:00 AM,81,73,70,29.88,6,ENE,5.8,,,,Scattered Clouds,70,2013-01-19 18:00:00
1:30 AM,78.8,71.6,78,29.92,6.2,ENE,12.7,-,N/A,,Mostly Cloudy,60,2013-01-19 18:30:00
2:00 AM,78.8,71.6,78,29.89,6.2,ENE,8.1,-,N/A,,Mostly Cloudy,60,2013-01-19 19:00:00
2:30 AM,78.8,71.6,78,29.89,6.2,ENE,8.1,-,N/A,,Mostly Cloudy,60,2013-01-19 19:30:00
3:00 AM,78.8,71.6,78,29.86,6.2,East,9.2,-,N/A,,Mostly Cloudy,80,2013-01-19 20:00:00
3:30 AM,78.8,69.8,74,29.86,6.2,East,9.2,-,N/A,,Mostly Cloudy,90,2013-01-19 20:30:00
4:00 AM,77.0,69.8,78,29.86,6.2,ENE,9.2,-,N/A,,Mostly Cloudy,60,2013-01-19 21:00:00
4:30 AM,77.0,69.8,78,29.86,6.2,ENE,5.8,-,N/A,,Mostly Cloudy,60,2013-01-19 21:30:00
5:00 AM,78.8,69.8,74,29.86,6.2,East,9.2,-,N/A,,Mostly Cloudy,90,2013-01-19 22:00:00
5:30 AM,78.8,69.8,74,29.86,6.2,East,9.2,-,N/A,,Mostly Cloudy,90,2013-01-19 22:30:00
6:00 AM,77.0,69.8,78,29.89,6.2,ENE,9.2,-,N/A,,Mostly Cloudy,60,2013-01-19 23:00:00
6:30 AM,77.0,69.8,78,29.89,6.2,NE,5.8,-,N/A,,Mostly Cloudy,50,2013-01-19 23:30:00
7:00 AM,77,72,79,29.87,6,NE,5.8,,,,Scattered Clouds,50,2013-01-20 00:00:00
7:00 AM,77.0,69.8,78,29.89,4.3,NE,6.9,-,N/A,,Mostly Cloudy,50,2013-01-20 00:00:00
7:30 AM,77.0,71.6,83,29.89,4.3,ENE,6.9,-,N/A,,Mostly Cloudy,60,2013-01-20 00:30:00
8:00 AM,80.6,69.8,70,29.92,5.0,ENE,9.2,-,N/A,,Mostly Cloudy,60,2013-01-20 01:00:00
8:30 AM,80.6,69.8,70,29.92,5.0,ENE,6.9,-,N/A,,Mostly Cloudy,70,2013-01-20 01:30:00
9:00 AM,80.6,69.8,70,29.92,4.3,ENE,8.1,-,N/A,,Mostly Cloudy,70,2013-01-20 02:00:00
9:30 AM,82.4,69.8,66,29.95,4.3,ENE,5.8,-,N/A,,Mostly Cloudy,70,2013-01-20 02:30:00
10:00 AM,84.2,69.8,62,29.95,4.3,East,13.8,-,N/A,,Scattered Clouds,80,2013-01-20 03:00:00
10:30 AM,84.2,69.8,62,29.92,4.3,East,12.7,-,N/A,,Scattered Clouds,80,2013-01-20 03:30:00
11:00 AM,86.0,69.8,58,29.92,4.3,East,15.0,-,N/A,,Scattered Clouds,80,2013-01-20 04:00:00
11:30 AM,84.2,68.0,58,29.92,4.3,ENE,10.4,-,N/A,,Scattered Clouds,70,2013-01-20 04:30:00
12:00 PM,87.8,66.2,49,29.92,4.3,East,12.7,-,N/A,,Scattered Clouds,100,2013-01-20 05:00:00
12:30 PM,87.8,66.2,49,29.89,4.3,East,13.8,-,N/A,,Scattered Clouds,90,2013-01-20 05:30:00
1:00 PM,87,70,47,29.88,4,East,11.5,,,,Haze,90,2013-01-20 06:00:00
1:00 PM,87.8,66.2,49,29.89,4.3,East,13.8,-,N/A,,Scattered Clouds,90,2013-01-20 06:00:00
1:30 PM,89.6,66.2,46,29.89,4.3,East,11.5,-,N/A,,Mostly Cloudy,100,2013-01-20 06:30:00
2:00 PM,89.6,66.2,46,29.86,4.3,East,13.8,-,N/A,,Mostly Cloudy,90,2013-01-20 07:00:00
2:30 PM,89.6,66.2,46,29.86,4.3,East,15.0,-,N/A,,Scattered Clouds,90,2013-01-20 07:30:00
3:00 PM,89.6,68.0,49,29.83,4.3,East,12.7,-,N/A,,Scattered Clouds,90,2013-01-20 08:00:00
3:30 PM,89.6,68.0,49,29.83,4.3,East,11.5,-,N/A,,Scattered Clouds,90,2013-01-20 08:30:00
4:00 PM,89.6,68.0,49,29.80,5.0,ENE,9.2,-,N/A,,Scattered Clouds,70,2013-01-20 09:00:00
4:30 PM,89.6,68.0,49,29.80,5.0,East,13.8,-,N/A,,Scattered Clouds,80,2013-01-20 09:30:00
5:00 PM,89.6,68.0,49,29.80,5.0,East,11.5,-,N/A,,Mostly Cloudy,80,2013-01-20 10:00:00
5:30 PM,87.8,68.0,52,29.83,5.0,East,5.8,-,N/A,,Scattered Clouds,80,2013-01-20 10:30:00
6:00 PM,87.8,68.0,52,29.83,5.0,ENE,6.9,-,N/A,,Scattered Clouds,70,2013-01-20 11:00:00
6:30 PM,86.0,69.8,58,29.83,4.3,ENE,3.5,-,N/A,,Mostly Cloudy,60,2013-01-20 11:30:00
7:00 PM,87,75,59,29.82,5,ENE,3.5,,,,Mist,60,2013-01-20 12:00:00
7:00 PM,84.2,69.8,62,29.83,4.3,NNE,3.5,-,N/A,,Mostly Cloudy,30,2013-01-20 12:00:00
7:30 PM,84.2,71.6,66,29.86,5.0,North,2.3,-,N/A,,Mostly Cloudy,10,2013-01-20 12:30:00
8:00 PM,82.4,71.6,70,29.89,5.0,Variable,3.5,-,N/A,,Mostly Cloudy,0,2013-01-20 13:00:00
8:30 PM,82.4,71.6,70,29.89,5.0,Variable,2.3,-,N/A,,Mostly Cloudy,0,2013-01-20 13:30:00
9:00 PM,80.6,73.4,79,29.92,5.0,Variable,1.2,-,N/A,,Mostly Cloudy,0,2013-01-20 14:00:00
9:30 PM,80.6,71.6,74,29.92,5.0,East,3.5,-,N/A,,Mostly Cloudy,90,2013-01-20 14:30:00
10:00 PM,82.4,69.8,66,29.92,5.0,ESE,5.8,-,N/A,,Mostly Cloudy,110,2013-01-20 15:00:00
10:30 PM,80.6,71.6,74,29.92,5.0,Variable,1.2,-,N/A,,Mostly Cloudy,0,2013-01-20 15:30:00
11:00 PM,80.6,69.8,70,29.92,5.0,East,4.6,-,N/A,,Mostly Cloudy,100,2013-01-20 16:00:00
11:30 PM,80.6,69.8,70,29.92,5.0,NE,2.3,-,N/A,,Mostly Cloudy,50,2013-01-20 16:30:00